Weather History for KRRT - October, 2012

Change the Weather History Date:

Thursday, October 4, 2012

  Actual Average Record
Temperature  
Mean Temperature 38 °F -  
Max Temperature 42 °F 59 °F 79 °F (1963)
Min Temperature 33 °F 36 °F 22 °F (1988)
Degree Days  
Heating Degree Days 28    
Moisture  
Dew Point 31 °F    
Average Humidity 83    
Maximum Humidity 93    
Minimum Humidity 81    
Precipitation  
Precipitation 0.81 in - - ()
Sea Level Pressure  
Sea Level Pressure 29.88 in    
Wind  
Wind Speed 19 mph (NNW)    
Max Wind Speed 25 mph    
Max Gust Speed 39 mph    
Visibility 4 miles    
Events Rain , Snow , Thunderstorm    
Averages and records for this station are not official NWS values.
T = Trace of Precipitation, MM = Missing Value Source: NWS Daily Summary

Daily Weather History Graph

Daily Weather History Graph

Search for Another Location

Airport or City:

Trip Planner

Search our weather history database for the weather conditions in past years. The results will help you decide how hot, cold, wet, or windy it might be!

Date:

Astronomy

Oct. 04, 2012 Rise Set
Actual Time 7:26 AM CDT 6:52 PM CDT
Civil Twilight 6:54 AM CDT 7:24 PM CDT
Nautical Twilight 6:17 AM CDT 8:00 PM CDT
Astronomical Twilight 5:40 AM CDT 8:37 PM CDT
Moon 9:05 PM CDT 12:07 PM CDT
Length of Visible Light 12h 29m
Length of Day
11h 26m
Waning Gibbous, 82% of the Moon is Illuminated
Oct 4
Waning Gibbous
Oct 8
Last Quarter
Oct 15
New
Oct 21
First Quarter
Oct 29
Full

Hourly Weather History & Observations

Time (CDT) Temp. Windchill Dew Point Humidity Pressure Visibility Wind Dir Wind Speed Gust Speed Precip Events Conditions
12:14 AM 42.8 °F 34.5 °F 39.2 °F 87% 30.04 in 10.0 mi North 18.4 mph 25.3 mph N/A   Overcast
12:34 AM 42.8 °F 34.8 °F 37.4 °F 81% 30.05 in 10.0 mi North 17.3 mph 26.5 mph N/A   Overcast
12:54 AM 42.8 °F 34.8 °F 37.4 °F 81% 30.03 in 10.0 mi NNE 17.3 mph 26.5 mph N/A Rain Light Rain
1:14 AM 42.8 °F 34.5 °F 37.4 °F 81% 30.03 in 10.0 mi North 18.4 mph 23.0 mph N/A   Light Drizzle
1:34 AM 41.0 °F 31.9 °F 37.4 °F 87% 30.02 in 10.0 mi NNE 19.6 mph 24.2 mph N/A   Light Drizzle
1:54 AM 41.0 °F 33.1 °F 37.4 °F 87% 30.03 in 10.0 mi North 15.0 mph 23.0 mph N/A   Light Drizzle
2:14 AM 41.0 °F 31.9 °F 37.4 °F 87% 30.00 in 10.0 mi North 19.6 mph 25.3 mph N/A   Light Drizzle
2:35 AM 41.0 °F 33.1 °F 37.4 °F 87% 30.01 in 7.0 mi North 15.0 mph 24.2 mph N/A   Overcast
2:54 AM 39.2 °F 29.8 °F 37.4 °F 93% 29.99 in 7.0 mi North 18.4 mph 25.3 mph N/A Rain Rain
3:14 AM 39.2 °F 29.0 °F 35.6 °F 87% 29.96 in 7.0 mi North 21.9 mph 28.8 mph 0.01 in Rain Rain
3:34 AM 39.2 °F 29.6 °F 35.6 °F 87% 29.95 in 10.0 mi NNE 19.6 mph 26.5 mph 0.01 in   Drizzle
3:54 AM 39.2 °F 30.2 °F 35.6 °F 87% 29.93 in 7.0 mi NNE 17.3 mph 29.9 mph 0.02 in Rain Rain
4:14 AM 39.2 °F 29.0 °F 35.6 °F 87% 29.92 in 10.0 mi North 21.9 mph 31.1 mph 0.03 in Rain Light Rain
4:34 AM 39.2 °F 29.6 °F 35.6 °F 87% 29.91 in 7.0 mi North 19.6 mph 32.2 mph 0.06 in Rain Rain
4:54 AM 39.2 °F 29.6 °F 35.6 °F 87% 29.91 in 7.0 mi North 19.6 mph 33.4 mph 0.12 in Rain Rain
5:14 AM 39.2 °F 30.2 °F 35.6 °F 87% 29.91 in 10.0 mi North 17.3 mph 26.5 mph 0.05 in Rain Rain
5:34 AM 39.2 °F 29.6 °F 35.6 °F 87% 29.91 in 10.0 mi North 19.6 mph 26.5 mph 0.10 in Rain Rain
5:54 AM 37.4 °F 27.8 °F 33.8 °F 87% 29.89 in 7.0 mi North 17.3 mph 28.8 mph 0.15 in Rain Rain
6:14 AM 37.4 °F 27.8 °F 33.8 °F 87% 29.87 in 10.0 mi North 17.3 mph 24.2 mph 0.02 in Rain , Thunderstorm Light Thunderstorms and Rain
6:34 AM 35.6 °F 24.8 °F 33.8 °F 93% 29.86 in 10.0 mi North 19.6 mph 25.3 mph 0.03 in Rain Light Rain
6:54 AM 35.6 °F 25.2 °F 32.0 °F 87% 29.85 in 10.0 mi North 18.4 mph 25.3 mph 0.04 in Rain Light Rain
7:14 AM 35.6 °F 24.8 °F 30.2 °F 81% 29.84 in 5.0 mi North 19.6 mph 25.3 mph 0.06 in Rain Rain
7:39 AM 35.6 °F 25.5 °F 30.2 °F 81% 29.83 in 7.0 mi North 17.3 mph 25.3 mph 0.11 in Rain Rain
7:54 AM 33.8 °F 22.5 °F 30.2 °F 87% 29.83 in 7.0 mi North 19.6 mph 25.3 mph 0.15 in Rain Rain
8:14 AM 33.8 °F 22.2 °F 30.2 °F 87% 29.81 in 5.0 mi NNW 20.7 mph 28.8 mph 0.02 in Rain Light Rain
8:34 AM 33.8 °F 23.9 °F 30.2 °F 87% 29.82 in 5.0 mi NNW 15.0 mph 26.5 mph 0.06 in Rain Rain
8:54 AM 33.8 °F 22.8 °F 30.2 °F 87% 29.80 in 2.5 mi NNW 18.4 mph 25.3 mph 0.07 in Snow Light Snow
9:14 AM 33.8 °F 24.3 °F 28.4 °F 81% 29.81 in 3.0 mi NNW 13.8 mph 24.2 mph 0.03 in Snow Light Snow
9:34 AM 33.8 °F 21.9 °F 28.4 °F 81% 29.80 in 2.0 mi NNW 21.9 mph 32.2 mph 0.07 in Snow Light Snow
9:54 AM 33.8 °F 24.3 °F 28.4 °F 81% 29.80 in 1.0 mi NNW 13.8 mph 21.9 mph 0.08 in Snow Light Snow
10:14 AM 33.8 °F 23.2 °F 28.4 °F 81% 29.79 in 1.2 mi NNW 17.3 mph 20.7 mph 0.01 in Snow Light Snow
10:34 AM 33.8 °F 23.2 °F 28.4 °F 81% 29.78 in 0.8 mi NW 17.3 mph 24.2 mph 0.03 in Snow Light Snow
10:54 AM 33.8 °F 22.8 °F 28.4 °F 81% 29.77 in 0.8 mi NNW 18.4 mph 29.9 mph 0.04 in Snow Light Snow
11:34 AM 33.8 °F 23.2 °F 28.4 °F 81% 29.78 in 0.5 mi NW 17.3 mph 24.2 mph 0.04 in Snow Snow
11:54 AM 33.8 °F 22.8 °F 28.4 °F 81% 29.78 in 0.5 mi NW 18.4 mph 24.2 mph 0.06 in Snow Snow
12:14 PM 33.8 °F 22.8 °F 28.4 °F 81% 29.78 in 0.5 mi NW 18.4 mph 24.2 mph 0.03 in Snow Light Snow
12:34 PM 33.8 °F 23.2 °F 28.4 °F 81% 29.78 in 0.8 mi NW 17.3 mph 26.5 mph 0.05 in Snow Light Snow
12:54 PM 33.8 °F 23.9 °F 28.4 °F 81% 29.78 in 0.8 mi NW 15.0 mph 27.6 mph 0.06 in Snow Light Snow
1:14 PM 33.8 °F 22.8 °F 28.4 °F 81% 29.78 in 0.2 mi NW 18.4 mph 25.3 mph 0.01 in Snow Snow
1:34 PM 33.8 °F 22.8 °F 28.4 °F 81% 29.78 in 0.2 mi NW 18.4 mph 28.8 mph 0.02 in Snow Snow
1:54 PM 33.8 °F 23.2 °F 28.4 °F 81% 29.78 in 0.5 mi NW 17.3 mph 28.8 mph 0.02 in Snow Light Snow
2:14 PM 33.8 °F 22.2 °F 28.4 °F 81% 29.79 in 1.0 mi NW 20.7 mph 28.8 mph N/A Snow Light Snow
2:34 PM 33.8 °F 22.5 °F 28.4 °F 81% 29.79 in 1.0 mi NW 19.6 mph 25.3 mph N/A Snow Light Snow
2:54 PM 33.8 °F 22.5 °F 28.4 °F 81% 29.80 in 2.0 mi NW 19.6 mph 25.3 mph N/A Snow Light Snow
3:14 PM 33.8 °F 21.9 °F 28.4 °F 81% 29.81 in 1.2 mi WNW 21.9 mph 32.2 mph N/A Snow Light Snow
3:34 PM 33.8 °F 22.5 °F 28.4 °F 81% 29.82 in 2.0 mi WNW 19.6 mph 31.1 mph N/A Snow Light Snow
3:54 PM 33.8 °F 21.6 °F 28.4 °F 81% 29.83 in 2.0 mi WNW 23.0 mph 31.1 mph N/A Snow Light Snow
4:14 PM 33.8 °F 21.3 °F 28.4 °F 81% 29.83 in 2.5 mi WNW 24.2 mph 31.1 mph N/A Snow Light Snow
4:34 PM 33.8 °F 21.6 °F 28.4 °F 81% 29.84 in 2.5 mi WNW 23.0 mph 33.4 mph N/A Snow Light Snow
4:54 PM 33.8 °F 22.5 °F 28.4 °F 81% 29.85 in 1.8 mi WNW 19.6 mph 34.5 mph N/A Snow Light Snow
5:14 PM 33.8 °F 21.0 °F 28.4 °F 81% 29.86 in 1.8 mi WNW 25.3 mph 35.7 mph N/A Snow Light Snow
5:34 PM 33.8 °F 21.9 °F 28.4 °F 81% 29.87 in 1.5 mi WNW 21.9 mph 33.4 mph N/A Snow Light Snow
5:54 PM 33.8 °F 21.6 °F 28.4 °F 81% 29.88 in 1.8 mi WNW 23.0 mph 34.5 mph N/A Snow Light Snow
6:14 PM 33.8 °F 21.9 °F 28.4 °F 81% 29.88 in 2.0 mi WNW 21.9 mph 33.4 mph N/A Snow Light Snow
6:34 PM 33.8 °F 21.9 °F 28.4 °F 81% 29.88 in 1.2 mi WNW 21.9 mph 32.2 mph N/A Snow Light Snow
6:54 PM 33.8 °F 22.5 °F 28.4 °F 81% 29.89 in 3.0 mi WNW 19.6 mph 33.4 mph N/A Snow Light Snow
7:14 PM 33.8 °F 22.2 °F 28.4 °F 81% 29.89 in 3.0 mi WNW 20.7 mph 29.9 mph N/A Snow Light Snow
7:34 PM 33.8 °F 22.2 °F 28.4 °F 81% 29.90 in 3.0 mi WNW 20.7 mph 39.1 mph N/A Snow Light Snow
7:54 PM 33.8 °F 21.9 °F 28.4 °F 81% 29.90 in 2.5 mi WNW 21.9 mph 28.8 mph N/A Snow Light Snow
8:14 PM 33.8 °F 22.2 °F 28.4 °F 81% 29.91 in 2.5 mi WNW 20.7 mph 29.9 mph N/A Snow Light Snow
8:35 PM 33.8 °F 21.3 °F 28.4 °F 81% 29.91 in 3.0 mi WNW 24.2 mph 35.7 mph N/A Snow Light Snow
8:54 PM 33.8 °F 22.2 °F 28.4 °F 81% 29.91 in 3.0 mi WNW 20.7 mph 27.6 mph N/A Snow Light Snow
9:14 PM 33.8 °F 22.8 °F 28.4 °F 81% 29.91 in 3.0 mi WNW 18.4 mph 28.8 mph N/A Snow Light Snow
9:34 PM 33.8 °F 21.3 °F 28.4 °F 81% 29.91 in 3.0 mi WNW 24.2 mph 32.2 mph N/A Snow Light Snow
9:54 PM 33.8 °F 21.3 °F 28.4 °F 81% 29.91 in 4.0 mi WNW 24.2 mph 28.8 mph N/A Snow Light Snow
10:14 PM 33.8 °F 22.8 °F 28.4 °F 81% 29.91 in 4.0 mi WNW 18.4 mph 32.2 mph N/A Snow Light Snow
10:35 PM 33.8 °F 21.9 °F 28.4 °F 81% 29.92 in 4.0 mi WNW 21.9 mph 31.1 mph N/A Snow Light Snow
10:54 PM 33.8 °F 22.5 °F 28.4 °F 81% 29.92 in 3.0 mi WNW 19.6 mph 34.5 mph N/A Snow Light Snow
11:14 PM 33.8 °F 21.0 °F 28.4 °F 81% 29.92 in 3.0 mi WNW 25.3 mph 32.2 mph N/A Snow Light Snow
11:35 PM 33.8 °F 21.6 °F 28.4 °F 81% 29.92 in 5.0 mi WNW 23.0 mph 29.9 mph N/A Snow Light Snow
11:54 PM 33.8 °F 22.2 °F 28.4 °F 81% 29.92 in 5.0 mi WNW 20.7 mph 31.1 mph N/A Snow Light Snow